Weather History for Oakland, CA

Change the Weather History Date:

Sunday, January 19, 2014

  Actual Average Record
Temperature  
Mean Temperature 50 °F 50 °F  
Max Temperature 64 °F 57 °F 68 °F (1976)
Min Temperature 35 °F 42 °F 34 °F (2007)
Degree Days  
Heating Degree Days 15 16  
Month to date heating degree days 255 309  
Since 1 July heating degree days 1378 1481  
Cooling Degree Days 0 0  
Month to date cooling degree days 0 0  
Year to date cooling degree days 0 0  
Moisture  
Dew Point 38 °F    
Average Humidity 63    
Maximum Humidity 85    
Minimum Humidity 40    
Precipitation  
Precipitation 0.00 in 0.08 in 1.48 in (2010)
Month to date precipitation 0.01 3.05  
Year to date precipitation 0.01 3.05  
Since 1 July precipitation 2.08 10.64  
Sea Level Pressure  
Sea Level Pressure 30.10 in    
Wind  
Wind Speed 2 mph (WSW)    
Max Wind Speed 10 mph    
Max Gust Speed 13 mph    
Visibility 9 miles    
Events      
T = Trace of Precipitation, MM = Missing Value Source: NWS Daily Summary

Daily Weather History Graph

Daily Weather History Graph

Search for Another Location

Airport:

Trip Planner

Search our weather history database for the weather conditions in past years. The results will help you decide how hot, cold, wet, or windy it might be!

Date:

Astronomy

Jan. 19, 2014 Rise Set
Actual Time 7:21 AM PST 5:18 PM PST
Civil Twilight 6:52 AM PST 5:46 PM PST
Nautical Twilight 6:20 AM PST 6:18 PM PST
Astronomical Twilight 5:49 AM PST 6:50 PM PST
Moon 8:56 PM PST (1/19) 8:58 AM PST (1/19)
Length of Visible Light 10h 53m
Length of Day
9h 57m
Waning Gibbous, 89% of the Moon is Illuminated
Jan 19
Waning Gibbous
Jan 23
Last Quarter
Jan 30
New
Feb 6
First Quarter
Feb 14
Full

Hourly Weather History & Observations

Time (PST) Temp. Windchill Dew Point Humidity Pressure Visibility Wind Dir Wind Speed Gust Speed Precip Events Conditions
12:53 AM 41.0 °F - 35.1 °F 79% 30.08 in 10.0 mi Calm Calm - N/A   Clear
1:53 AM 41.0 °F - 36.0 °F 82% 30.08 in 10.0 mi Calm Calm - N/A   Clear
2:53 AM 39.0 °F - 33.1 °F 79% 30.09 in 10.0 mi Calm Calm - N/A   Clear
3:53 AM 39.9 °F 36.7 °F 35.1 °F 83% 30.09 in 10.0 mi ENE 4.6 mph - N/A   Clear
4:53 AM 42.1 °F - 32.0 °F 67% 30.08 in 10.0 mi Calm Calm - N/A   Clear
5:53 AM 37.0 °F - 30.9 °F 79% 30.09 in 10.0 mi Calm Calm - N/A   Clear
6:53 AM 39.9 °F - 34.0 °F 79% 30.10 in 10.0 mi Calm Calm - N/A   Partly Cloudy
7:53 AM 37.9 °F - 30.9 °F 76% 30.12 in 10.0 mi Calm Calm - N/A   Partly Cloudy
8:53 AM 48.9 °F - 39.0 °F 69% 30.12 in 9.0 mi SSE 4.6 mph - N/A   Partly Cloudy
9:53 AM 52.0 °F - 43.0 °F 71% 30.14 in 10.0 mi South 3.5 mph - N/A   Partly Cloudy
10:53 AM 54.0 °F - 43.0 °F 66% 30.14 in 10.0 mi Calm Calm - N/A   Partly Cloudy
11:53 AM 57.0 °F - 37.0 °F 47% 30.12 in 9.0 mi West 5.8 mph - N/A   Partly Cloudy
12:53 PM 57.9 °F - 37.9 °F 47% 30.10 in 9.0 mi WSW 4.6 mph - N/A   Partly Cloudy
1:53 PM 62.1 °F - 39.0 °F 43% 30.07 in 8.0 mi Calm Calm - N/A   Partly Cloudy
2:53 PM 61.0 °F - 41.0 °F 48% 30.06 in 8.0 mi WSW 3.5 mph - N/A   Partly Cloudy
3:53 PM 64.0 °F - 39.9 °F 41% 30.06 in 8.0 mi WNW 9.2 mph - N/A   Scattered Clouds
4:53 PM 57.9 °F - 45.0 °F 62% 30.06 in 9.0 mi West 3.5 mph - N/A   Scattered Clouds
5:53 PM 55.9 °F - 45.0 °F 67% 30.07 in 9.0 mi Calm Calm - N/A   Scattered Clouds
6:53 PM 55.0 °F - 44.1 °F 67% 30.08 in 10.0 mi Calm Calm - N/A   Scattered Clouds
7:53 PM 54.0 °F - 41.0 °F 62% 30.09 in 10.0 mi Calm Calm - N/A   Partly Cloudy
8:53 PM 48.9 °F - 39.0 °F 69% 30.10 in 9.0 mi Calm Calm - N/A   Partly Cloudy
9:53 PM 48.0 °F - 37.9 °F 68% 30.12 in 9.0 mi Calm Calm - N/A   Partly Cloudy
10:53 PM 41.0 °F - 34.0 °F 76% 30.13 in 8.0 mi Calm Calm - N/A   Partly Cloudy
11:53 PM 39.9 °F - 34.0 °F 79% 30.13 in 7.0 mi Calm Calm - N/A   Partly Cloudy